Location: Ehrke Reservoir
(40.0279°N, 99.6641°W)
Time: 09:13:24
(UTC+00:00)

COSMOS 2455 - Pass Details

Date: 20 January 2020
Orbit: 902 x 907 km, 67.1° (Epoch: 17 February)

Event Time Altitude Azimuth Distance (km) Brightness Sun altitude
Rises 11:25:08 0° 190° (S) 3,510 5.9 -28.7°
Reaches altitude 10° 11:27:41 10° 185° (S) 2,574 5.2 -28.2°
Maximum altitude 11:33:24 49° 112° (ESE) 1,157 3.7 -27.1°
Drops below altitude 10° 11:39:09 10° 39° (NE) 2,593 5.6 -26.0°
Sets 11:41:44 0° 34° (NE) 3,539 6.3 -25.6°
